Location: Makanda
(37.6176°N, 89.2090°W)
Time: 02:02:01
(UTC+00:00)

Meteor 1-5 Rocket - Pass Details

Date: 23 September 2019
Orbit: 789 x 915 km, 81.2° (Epoch: 15 October)

Event Time Altitude Azimuth Distance (km) Brightness Sun altitude
Rises 09:36:11 0° 348° (NNW) 3,362 7.5 -25.8°
Reaches altitude 10° 09:38:33 10° 347° (NNW) 2,443 6.7 -25.4°
Maximum altitude 09:44:04 74° 264° (W) 888 4.0 -24.3°
Drops below altitude 10° 09:49:45 10° 180° (S) 2,513 6.5 -23.3°
Sets 09:52:14 0° 178° (S) 3,465 7.2 -22.8°
